(298640) = 2004 BQ77 = 2007 VB50

Discovered at Socorro on 2004-01-22 by LINEAR.

Orbit

Orbit type: Main Belt

Note: WebGL enabled browser required.

epoch2023-02-25.0
epoch JD2460000.5
perihelion date2021-10-19.72908
perihelion JD2459507.22908
argument of perihelion (°)99.40229
ascending node (°)320.23361
inclination (°)3.21830
eccentricity0.0915392
perihelion distance (AU)2.5184996
Tisserand w.r.t. Jupiter3.3
ΔV w.r.t. Earth (km/sec)10.0
semimajor axis (AU)2.7722712
mean anomaly (°)105.32605
mean daily motion (°/day)0.21352580
aphelion distance (AU)3.026
period (years)4.62
P-vector [x]0.50449796
P-vector [y]0.76850293
P-vector [z]0.39355439
Q-vector [x]-0.86266577
Q-vector [y]0.46761083
Q-vector [z]0.19273784
absolute magnitude16.82
phase slope0.15
uncertainty0
referenceMPEC 2023-F144
observations used296
oppositions12
arc length (days)7002
first opposition used2004
last opposition used2023
residual rms (arc-secs)0.74
perturbers coarse indicatorM-v
perturbers precise indicator003Ek
first observation date used2004-01-22.0
last observation date used2023-03-25.0
computer nameMPCLINUX
JD of orbit computation2456789.206774
perihelion JD uncertainty (days)2.7341E-04
argument of perihelion uncertainty (°)1.0441E-04
ascending node uncertainty (°)8.9016E-05
inclination uncertainty (°)5.0395E-06
eccentricity uncertainty 6.7819E-08
perihelion distance uncertainty (AU)2.3369E-07
Minimum Orbit Intersection Distances (in AU)
for orbit epoch: 2460000.5, reference: E2023-FE4
Mercury2.20734
Venus1.7994
Earth1.53205
Mars0.97438
Jupiter2.23873
Saturn6.49201
Uranus15.577
Neptune27.2603

Observations

302 total observations over interval: 2004 01 22.29265 – 2023 03 25.403720
These data are available for download (format description).

Date (UT) J2000 RA J2000 Dec Magn Location Ref
2004 01 22.29265 08 38 44.80 +19 53 46.5 20.1   704 – Lincoln Laboratory ETS, New Mexico MPS 97959
2004 01 22.30554 08 38 43.97 +19 53 50.1 20.2   704 – Lincoln Laboratory ETS, New Mexico MPS 97959
2004 01 22.31844 08 38 43.26 +19 53 50.2 20.9   704 – Lincoln Laboratory ETS, New Mexico MPS 97959
2004 01 22.33131 08 38 42.45 +19 53 52.7 20.2   704 – Lincoln Laboratory ETS, New Mexico MPS 97959
2004 01 22.34432 08 38 41.70 +19 53 54.7 20.2   704 – Lincoln Laboratory ETS, New Mexico MPS 97959
2004 01 28.18468 08 33 00.89 +20 07 26.8 20.8 V 691 – Steward Observatory, Kitt Peak-Spacewatch MPS 97959
2004 01 28.21244 08 32 59.23 +20 07 30.6 20.6 V 691 – Steward Observatory, Kitt Peak-Spacewatch MPS 97959
2004 01 28.24065 08 32 57.52 +20 07 34.7 20.5 V 691 – Steward Observatory, Kitt Peak-Spacewatch MPS 97959
2004 02 12.14905 08 19 21.59 +20 34 12.8 20.1 V 291 – LPL/Spacewatch II MPS 98871
2004 02 12.17341 08 19 20.31 +20 34 16.5 20.8 V 291 – LPL/Spacewatch II MPS 98871
2004 02 12.19781 08 19 19.07 +20 34 18.2 20.9 V 291 – LPL/Spacewatch II MPS 98871
2007 11 01.21065 03 21 54.94 +23 53 09.4   691 – Steward Observatory, Kitt Peak-Spacewatch MPS 225222
2007 11 01.22829 03 21 53.97 +23 53 07.1   691 – Steward Observatory, Kitt Peak-Spacewatch MPS 225222
2007 11 01.24594 03 21 53.02 +23 53 04.8   691 – Steward Observatory, Kitt Peak-Spacewatch MPS 225222
2007 11 05.20284 03 18 21.38 +23 42 47.2 20.0 V 691 – Steward Observatory, Kitt Peak-Spacewatch MPS 225222
2007 11 05.22053 03 18 20.38 +23 42 44.3 20.1 V 691 – Steward Observatory, Kitt Peak-Spacewatch MPS 225222
2007 11 05.23822 03 18 19.37 +23 42 41.7 19.9 V 691 – Steward Observatory, Kitt Peak-Spacewatch MPS 225222
2007 11 07.16048 03 16 32.96 +23 37 00.4 20.2 V 691 – Steward Observatory, Kitt Peak-Spacewatch MPS 227070
2007 11 07.17818 03 16 31.94 +23 36 57.6 20.2 V 691 – Steward Observatory, Kitt Peak-Spacewatch MPS 227070
2007 11 07.19588 03 16 30.94 +23 36 54.2 20.1 V 691 – Steward Observatory, Kitt Peak-Spacewatch MPS 227070
2007 11 07.31717 03 16 23.96 +23 36 31.4 19.8   704 – Lincoln Laboratory ETS, New Mexico MPS 225222
2007 11 07.32956 03 16 23.21 +23 36 31.1 20.6   704 – Lincoln Laboratory ETS, New Mexico MPS 225222
2007 11 07.34194 03 16 22.51 +23 36 28.8 20.4   704 – Lincoln Laboratory ETS, New Mexico MPS 225222
2007 11 07.36674 03 16 21.12 +23 36 25.0 20.5   704 – Lincoln Laboratory ETS, New Mexico MPS 225222
2007 11 09.15841 03 14 40.47 +23 30 40.8 19.8 V 691 – Steward Observatory, Kitt Peak-Spacewatch MPS 227070
2007 11 09.17605 03 14 39.49 +23 30 37.6 20.1 V 691 – Steward Observatory, Kitt Peak-Spacewatch MPS 227070
2007 11 09.19714 03 14 38.27 +23 30 33.8 19.8 V 691 – Steward Observatory, Kitt Peak-Spacewatch MPS 227070
2007 11 13.15558 03 10 52.85 +23 16 50.8 19.7 V 691 – Steward Observatory, Kitt Peak-Spacewatch MPS 227070
2007 11 13.17322 03 10 51.83 +23 16 47.3 19.8 V 691 – Steward Observatory, Kitt Peak-Spacewatch MPS 227070
2007 11 13.19086 03 10 50.77 +23 16 43.5 19.9 V 691 – Steward Observatory, Kitt Peak-Spacewatch MPS 227070
2007 11 17.13902 03 07 06.70 +23 01 44.4 20.2 V 691 – Steward Observatory, Kitt Peak-Spacewatch MPS 228268
2007 11 17.15412 03 07 05.82 +23 01 41.2 19.9 V 691 – Steward Observatory, Kitt Peak-Spacewatch MPS 228268
2007 11 17.16922 03 07 04.98 +23 01 37.8 19.9 V 691 – Steward Observatory, Kitt Peak-Spacewatch MPS 228268
2007 12 05.06995 02 52 24.10 +21 47 19.4 20.3 V 691 – Steward Observatory, Kitt Peak-Spacewatch MPS 229795
2007 12 05.08580 02 52 23.45 +21 47 15.4 20.4 V 691 – Steward Observatory, Kitt Peak-Spacewatch MPS 229795
2007 12 05.10165 02 52 22.85 +21 47 11.8 20.4 V 691 – Steward Observatory, Kitt Peak-Spacewatch MPS 229795
2007 12 13.19502 02 47 58.99 +21 16 33.9 19.9 C 704 – Lincoln Laboratory ETS, New Mexico MPS 287961
2007 12 13.20793 02 47 58.71 +21 16 32.5 19.9 C 704 – Lincoln Laboratory ETS, New Mexico MPS 287961
2007 12 13.22081 02 47 58.23 +21 16 30.1 20.6 C 704 – Lincoln Laboratory ETS, New Mexico MPS 287961
2009 02 01.39237 11 26 00.20 +02 07 29.2   291 – LPL/Spacewatch II MPS 276325
2009 02 01.41546 11 25 59.54 +02 07 31.0   291 – LPL/Spacewatch II MPS 276325
2009 02 01.43853 11 25 58.88 +02 07 32.8   291 – LPL/Spacewatch II MPS 276325
2009 02 27.22869 11 08 20.98 +03 24 29.8 20.8 V 691 – Steward Observatory, Kitt Peak-Spacewatch MPS 278615
2009 02 27.24977 11 08 19.85 +03 24 35.0 20.3 V 691 – Steward Observatory, Kitt Peak-Spacewatch MPS 278615
2009 02 27.26737 11 08 18.96 +03 24 39.6 20.3 V 691 – Steward Observatory, Kitt Peak-Spacewatch MPS 278615
2009 03 03.21728 11 04 55.52 +03 41 25.8 20.2 V 691 – Steward Observatory, Kitt Peak-Spacewatch MPS 278615
2009 03 03.23491 11 04 54.68 +03 41 30.3 20.4 V 691 – Steward Observatory, Kitt Peak-Spacewatch MPS 278615
2009 03 03.25255 11 04 53.75 +03 41 34.9 20.5 V 691 – Steward Observatory, Kitt Peak-Spacewatch MPS 278615
2009 03 16.33654 10 53 49.95 +04 38 04.7 20.0 V G96 – Mt. Lemmon Survey MPS 280054
2009 03 16.34484 10 53 49.52 +04 38 05.6 19.9 V G96 – Mt. Lemmon Survey MPS 280054
2009 03 16.35295 10 53 49.12 +04 38 07.8 20.6 V G96 – Mt. Lemmon Survey MPS 280054
2009 03 16.36113 10 53 48.73 +04 38 10.1 20.6 V G96 – Mt. Lemmon Survey MPS 280054
2009 03 29.12434 10 44 44.40 +05 26 04.3   691 – Steward Observatory, Kitt Peak-Spacewatch MPS 282523
2009 03 29.14600 10 44 43.52 +05 26 09.2   691 – Steward Observatory, Kitt Peak-Spacewatch MPS 282523
2009 03 29.16764 10 44 42.73 +05 26 13.3   691 – Steward Observatory, Kitt Peak-Spacewatch MPS 282523
2009 04 01.13148 10 43 01.06 +05 35 18.1   691 – Steward Observatory, Kitt Peak-Spacewatch MPS 282523
2009 04 01.15331 10 43 00.32 +05 35 22.2   691 – Steward Observatory, Kitt Peak-Spacewatch MPS 282523
2009 04 01.17519 10 42 59.58 +05 35 25.1   691 – Steward Observatory, Kitt Peak-Spacewatch MPS 282523
2010 06 04.400672 16 22 38.635 -26 10 13.77 20.64 i F51 – Pan-STARRS 1, Haleakala MPS 337311
2010 06 04.411782 16 22 37.995 -26 10 12.14 20.60 i F51 – Pan-STARRS 1, Haleakala MPS 337311
2011 08 31.33926 22 39 51.343 -06 45 30.44 20.4 g F51 – Pan-STARRS 1, Haleakala MPS 390563
2011 08 31.34053 22 39 51.280 -06 45 30.56 20.5 g F51 – Pan-STARRS 1, Haleakala MPS 390563
2011 08 31.36313 22 39 50.105 -06 45 36.14 20.1 r F51 – Pan-STARRS 1, Haleakala MPS 390563
2011 08 31.36433 22 39 50.023 -06 45 36.43 20.2 r F51 – Pan-STARRS 1, Haleakala MPS 390563
2011 08 31.37405 22 39 49.513 -06 45 38.75 20.2 r F51 – Pan-STARRS 1, Haleakala MPS 390563
2011 08 31.37524 22 39 49.451 -06 45 38.95 20.3 r F51 – Pan-STARRS 1, Haleakala MPS 390563
2011 09 06.47190 22 34 38.237 -07 09 15.36 20.2 i F51 – Pan-STARRS 1, Haleakala MPS 391085
2011 09 06.48248 22 34 37.683 -07 09 17.85 19.9 i F51 – Pan-STARRS 1, Haleakala MPS 391085
2011 09 20.32603 22 23 48.235 -07 59 05.81 20.8 w F51 – Pan-STARRS 1, Haleakala MPS 391085
2011 09 20.34113 22 23 47.579 -07 59 08.67 20.7 w F51 – Pan-STARRS 1, Haleakala MPS 391085
2011 09 20.35627 22 23 46.918 -07 59 11.51 20.8 w F51 – Pan-STARRS 1, Haleakala MPS 391086
2011 09 20.37148 22 23 46.255 -07 59 14.48 20.8 w F51 – Pan-STARRS 1, Haleakala MPS 391086
2011 09 22.15705 22 22 33.74 -08 04 48.9 20.7 V G96 – Mt. Lemmon Survey MPS 391086
2011 09 22.16268 22 22 33.49 -08 04 49.6 20.8 V G96 – Mt. Lemmon Survey MPS 391086
2011 09 22.16833 22 22 33.27 -08 04 51.0 20.6 V G96 – Mt. Lemmon Survey MPS 391086
2011 09 22.17397 22 22 33.02 -08 04 51.9 20.8 V G96 – Mt. Lemmon Survey MPS 391086
2011 09 30.22619 22 17 51.12 -08 26 14.9 20.7 V 291 – LPL/Spacewatch II MPS 392617
2011 09 30.23216 22 17 51.00 -08 26 15.1 20.9 V 291 – LPL/Spacewatch II MPS 392617
2011 09 30.23758 22 17 50.75 -08 26 15.3 21.7 V 291 – LPL/Spacewatch II MPS 392617
2014 04 04.44364 13 09 43.660 -11 50 38.82 20.8 w F51 – Pan-STARRS 1, Haleakala MPS 510954
2014 04 04.45504 13 09 43.065 -11 50 35.78 20.6 w F51 – Pan-STARRS 1, Haleakala MPS 510954
2014 04 04.46642 13 09 42.466 -11 50 32.90 20.7 w F51 – Pan-STARRS 1, Haleakala MPS 510954
2014 04 24.28103 12 53 37.26 -10 18 30.9 20.5 V G96 – Mt. Lemmon Survey MPS 512309
2014 04 24.28787 12 53 36.90 -10 18 29.1 20.7 V G96 – Mt. Lemmon Survey MPS 512309
2014 04 24.29472 12 53 36.60 -10 18 26.7 20.7 V G96 – Mt. Lemmon Survey MPS 512309
